Dehesa (DV1, 283, 6914) Station Data

Red Flag Warning: No
Fire Weather Zone: 250
SDGE Region: Eastern
Lat/Lon: 32.787/-116.835

Observations

Time Wind Speed/Gust Temp(F) RH Fuel Moist Fuel Temp(F) Dewpt(F) Tmax(F) Tmin(F) Accum Precip 10-min Precip SL Press(mb)
6/22 5:00am 195 3 G 4 59° 100% - - 59° 61.6° 59° - - -
6/22 4:50am 283 1 G 2 59° 100% - - 59° 61.6° 59.1° - - -
6/22 4:40am 143 1 G 3 59° 100% - - 59° 61.6° 59.1° - - -
6/22 4:30am 79 2 G 4 59° 100% - - 59° 61.6° 59.1° - - -
6/22 4:20am 81 1 G 2 59° 100% - - 59° 61.6° 59.2° - - -
6/22 4:10am 144 1 G 3 59° 100% - - 59° 61.6° 59.2° - - -
6/22 4:00am 344 1 G 3 60° 100% - - 60° 61.6° 59.3° - - -
6/22 3:50am 127 1 G 3 60° 100% - - 60° 61.6° 59.3° - - -
6/22 3:40am 147 2 G 4 60° 100% - - 60° 61.6° 59.3° - - -
6/22 3:30am 138 1 G 2 60° 100% - - 60° 61.6° 59.4° - - -
6/22 3:20am 7 0 G 1 60° 100% - - 60° 61.6° 59.5° - - -
6/22 3:10am 336 1 G 3 60° 100% - - 60° 61.6° 59.6° - - -
6/22 3:00am 281 1 G 2 60° 100% - - 60° 61.6° 59.6° - - -
6/22 2:50am 223 1 G 3 60° 100% - - 60° 61.6° 59.6° - - -
6/22 2:40am 219 2 G 3 60° 100% - - 60° 61.6° 59.6° - - -
6/22 2:30am 205 1 G 3 60° 100% - - 60° 61.6° 59.6° - - -
6/22 2:20am 226 1 G 3 60° 100% - - 60° 61.6° 59.7° - - -
6/22 2:10am 277 1 G 3 60° 100% - - 60° 61.6° 59.7° - - -
6/22 2:00am 236 1 G 3 60° 100% - - 60° 61.6° 59.7° - - -
6/22 1:50am 163 2 G 3 60° 100% - - 60° 61.6° 59.8° - - -
6/22 1:40am 194 2 G 3 60° 100% - - 60° 61.6° 59.9° - - -
6/22 1:30am 192 2 G 4 60° 100% - - 60° 61.6° 59.9° - - -
6/22 1:20am 188 3 G 5 60° 100% - - 60° 61.6° 60.1° - - -
6/22 1:10am 185 4 G 6 60° 100% - - 60° 61.6° 60.1° - - -
6/22 1:00am 175 3 G 5 60° 100% - - 60° 61.6° 60.2° - - -
6/22 12:50am 197 5 G 7 60° 100% - - 60° 61.6° 60.2° - - -
6/22 12:40am 203 5 G 8 60° 100% - - 60° 61.6° 60.2° - - -
6/22 12:30am 206 5 G 10 61° 100% - - 61° 61.6° 60.4° - - -
6/22 12:20am 211 5 G 8 61° 100% - - 61° 61.6° 60.5° - - -
6/22 12:10am 217 4 G 7 61° 100% - - 61° 61.6° 60.9° - - -
6/22 12:00am 222 3 G 4 62° 100% - - 62° 92.9° 59.8° - - -
6/21 11:50pm 219 2 G 4 62° 100% - - 62° 92.9° 59.8° - - -
6/21 11:40pm 201 1 G 2 62° 100% - - 62° 92.9° 59.8° - - -
6/21 11:30pm 157 2 G 4 62° 100% - - 62° 92.9° 59.8° - - -
6/21 11:20pm 208 3 G 5 62° 100% - - 62° 92.9° 59.8° - - -
6/21 11:10pm 206 3 G 6 62° 100% - - 62° 92.9° 59.8° - - -
6/21 11:00pm 205 5 G 7 63° 100% - - 63° 92.9° 59.8° - - -
6/21 10:50pm 207 4 G 7 63° 100% - - 63° 92.9° 59.8° - - -
6/21 10:40pm 216 5 G 7 63° 100% - - 63° 92.9° 59.8° - - -
6/21 10:30pm 231 6 G 8 64° 100% - - 64° 92.9° 59.8° - - -
6/21 10:20pm 208 5 G 7 64° 100% - - 64° 92.9° 59.8° - - -
6/21 10:10pm 191 5 G 7 64° 100% - - 64° 92.9° 59.8° - - -
6/21 10:00pm 196 5 G 8 65° 100% - - 65° 92.9° 59.8° - - -
6/21 9:50pm 193 5 G 8 65° 99% - - 65° 92.9° 59.8° - - -
6/21 9:40pm 189 5 G 7 66° 91% - - 63° 92.9° 59.8° - - -
6/21 9:30pm 187 5 G 7 67° 86% - - 62° 92.9° 59.8° - - -
6/21 9:20pm 179 5 G 8 67° 83% - - 62° 92.9° 59.8° - - -
6/21 9:10pm 195 5 G 8 68° 80% - - 62° 92.9° 59.8° - - -
6/21 9:00pm 191 5 G 8 69° 78% - - 61° 92.9° 59.8° - - -
6/21 8:50pm 195 6 G 8 69° 74% - - 61° 92.9° 59.8° - - -
6/21 8:40pm 199 6 G 8 70° 71% - - 60° 92.9° 59.8° - - -
6/21 8:30pm 207 6 G 8 71° 69% - - 60° 92.9° 59.8° - - -
6/21 8:20pm 213 7 G 10 72° 66% - - 60° 92.9° 59.8° - - -
6/21 8:10pm 215 6 G 9 72° 64% - - 60° 92.9° 59.8° - - -
6/21 8:00pm 212 6 G 10 73° 62% - - 59° 92.9° 59.8° - - -
6/21 7:50pm 215 7 G 10 74° 60% - - 59° 92.9° 59.8° - - -
6/21 7:40pm 215 6 G 9 75° 58% - - 59° 92.9° 59.8° - - -
6/21 7:30pm 212 6 G 9 76° 56% - - 59° 92.9° 59.8° - - -
6/21 7:20pm 209 7 G 10 76° 55% - - 59° 92.9° 59.8° - - -
6/21 7:10pm 209 6 G 10 77° 53% - - 59° 92.9° 59.8° - - -
6/21 7:00pm 210 7 G 11 78° 52% - - 59° 92.9° 59.8° - - -
6/21 6:50pm 208 8 G 13 78° 51% - - 59° 92.9° 59.8° - - -
6/21 6:40pm 207 7 G 12 79° 50% - - 59° 92.9° 59.8° - - -
6/21 6:30pm 214 7 G 13 79° 49% - - 58° 92.9° 59.8° - - -
6/21 6:20pm 209 7 G 11 80° 48% - - 58° 92.9° 59.8° - - -
6/21 6:10pm 214 6 G 12 81° 46% - - 58° 92.9° 59.8° - - -
6/21 6:00pm 208 7 G 11 81° 46% - - 58° 92.9° 59.8° - - -
6/21 5:50pm 218 6 G 11 82° 44% - - 58° 92.9° 59.8° - - -
6/21 5:40pm 211 7 G 12 82° 44% - - 58° 92.9° 59.8° - - -
6/21 5:30pm 203 7 G 12 83° 43% - - 58° 92.9° 59.8° - - -
6/21 5:20pm 214 7 G 11 84° 42% - - 58° 92.9° 59.8° - - -
6/21 5:10pm 216 7 G 13 84° 41% - - 58° 92.9° 59.8° - - -
6/21 5:00pm 213 6 G 14 84° 40% - - 58° 92.9° 59.8° - - -
6/21 4:50pm 220 6 G 13 85° 40% - - 58° 92.9° 59.8° - - -
6/21 4:40pm 220 6 G 12 85° 39% - - 57° 92.9° 59.8° - - -
6/21 4:30pm 218 5 G 12 86° 38% - - 57° 92.9° 59.8° - - -
6/21 4:20pm 218 6 G 11 85° 39% - - 58° 92.9° 59.8° - - -
6/21 4:10pm 218 7 G 13 85° 39% - - 57° 92.9° 59.8° - - -
6/21 4:00pm 237 6 G 13 86° 38% - - 57° 92.9° 59.8° - - -
6/21 3:50pm 236 6 G 13 86° 37% - - 57° 92.9° 59.8° - - -
6/21 3:40pm 228 5 G 14 87° 37% - - 57° 92.9° 59.8° - - -
6/21 3:30pm 237 6 G 14 87° 36% - - 57° 92.9° 59.8° - - -
6/21 3:20pm 235 6 G 15 87° 36% - - 57° 92.9° 59.8° - - -
6/21 3:10pm 227 6 G 14 88° 35% - - 57° 92.9° 59.8° - - -
6/21 3:00pm 225 6 G 14 88° 35% - - 57° 92.9° 59.8° - - -
6/21 2:50pm 228 6 G 13 88° 36% - - 57° 92.9° 59.8° - - -
6/21 2:40pm 228 6 G 13 87° 36% - - 57° 92.9° 59.8° - - -
6/21 2:30pm 236 7 G 17 88° 36% - - 57° 92.9° 59.8° - - -
6/21 2:20pm 234 6 G 15 88° 35% - - 57° 92.9° 59.8° - - -
6/21 2:10pm 226 5 G 15 88° 35% - - 57° 92.9° 59.8° - - -
6/21 2:00pm 241 5 G 15 89° 34% - - 57° 92.9° 59.8° - - -
6/21 1:50pm 230 6 G 13 89° 34% - - 57° 92.9° 59.8° - - -
6/21 1:40pm 245 5 G 15 91° 32% - - 57° 92.9° 59.8° - - -
6/21 1:30pm 227 6 G 17 91° 32% - - 57° 92.9° 59.8° - - -
6/21 1:20pm 227 7 G 17 92° 31% - - 57° 92.9° 59.8° - - -
6/21 1:10pm 233 6 G 13 92° 31% - - 57° 92.9° 59.8° - - -
6/21 1:00pm 213 5 G 16 92° 31% - - 57° 92.4° 59.8° - - -
6/21 12:50pm 216 7 G 14 91° 32% - - 57° 92.3° 59.8° - - -
6/21 12:40pm 217 5 G 12 92° 32% - - 58° 92.3° 59.8° - - -
6/21 12:30pm 224 7 G 15 91° 33% - - 57° 91.5° 59.8° - - -
6/21 12:20pm 224 5 G 12 91° 32% - - 57° 91.5° 59.8° - - -
6/21 12:10pm 229 5 G 15 91° 33% - - 57° 91.1° 59.8° - - -
6/21 12:00pm 234 6 G 13 90° 33% - - 57° 91° 59.8° - - -
6/21 11:50am 223 5 G 14 91° 32% - - 57° 91° 59.8° - - -
6/21 11:40am 205 6 G 14 90° 33% - - 56° 90° 59.8° - - -
6/21 11:30am 204 8 G 14 89° 34% - - 57° 89.3° 59.8° - - -
6/21 11:20am 206 8 G 14 88° 34% - - 56° 88.8° 59.8° - - -
6/21 11:10am 198 9 G 13 87° 33% - - 55° 87.8° 59.8° - - -
6/21 11:00am 202 9 G 13 87° 33% - - 54° 87.5° 59.8° - - -
6/21 10:50am 211 6 G 12 87° 34% - - 55° 87.5° 59.8° - - -
6/21 10:40am 222 5 G 10 86° 38% - - 57° 86.8° 59.8° - - -
6/21 10:30am 213 5 G 8 84° 41% - - 58° 85.3° 59.8° - - -
6/21 10:20am 215 6 G 10 83° 43% - - 58° 83.6° 59.8° - - -
6/21 10:10am 205 6 G 11 82° 45% - - 58° 82.3° 59.8° - - -
6/21 10:00am 201 6 G 9 80° 48% - - 59° 81.1° 59.8° - - -
6/21 9:50am 201 6 G 10 79° 47% - - 58° 80° 59.8° - - -
6/21 9:40am 200 6 G 10 78° 50% - - 58° 78.7° 59.8° - - -
6/21 9:30am 207 5 G 8 77° 52% - - 58° 77.6° 59.8° - - -
6/21 9:20am 202 4 G 6 76° 52% - - 57° 76.9° 59.8° - - -
6/21 9:10am 212 3 G 6 76° 50% - - 57° 76.9° 59.8° - - -
6/21 9:00am 229 2 G 4 76° 51% - - 56° 76.2° 59.8° - - -
6/21 8:50am 256 1 G 3 74° 56% - - 58° 75° 59.8° - - -
6/21 8:40am 204 1 G 3 72° 64% - - 59° 73.3° 59.8° - - -
6/21 8:30am 240 2 G 3 71° 72% - - 61° 71.6° 59.8° - - -
6/21 8:20am 246 2 G 5 69° 81% - - 63° 70° 59.8° - - -
6/21 8:10am 206 2 G 4 68° 89% - - 65° 68.9° 59.8° - - -
6/21 8:00am 286 1 G 3 67° 100% - - 67° 67.4° 59.8° - - -
6/21 7:50am 215 1 G 2 66° 100% - - 66° 67.2° 59.8° - - -
6/21 7:40am 332 1 G 3 64° 100% - - 64° 66° 59.8° - - -
6/21 7:30am 323 1 G 3 64° 100% - - 64° 66° 59.8° - - -
6/21 7:20am 322 0 G 1 63° 100% - - 63° 66° 59.8° - - -
6/21 7:10am 339 0 G 2 62° 100% - - 62° 66° 59.8° - - -
6/21 7:00am 356 1 G 2 61° 100% - - 61° 66° 59.8° - - -
6/21 6:50am 140 0 G 1 61° 100% - - 61° 66° 59.8° - - -
6/21 6:40am 189 0 G 1 60° 100% - - 60° 66° 59.8° - - -
6/21 6:30am 117 0 G 1 60° 100% - - 60° 66° 59.8° - - -
6/21 6:20am 0 0 G 0 60° 100% - - 60° 66° 59.9° - - -
6/21 6:10am 79 1 G 1 60° 100% - - 60° 66° 59.9° - - -
6/21 6:00am 61 1 G 2 60° 100% - - 60° 66° 59.9° - - -
6/21 5:50am 97 1 G 2 60° 100% - - 60° 66° 59.9° - - -
6/21 5:40am 88 2 G 2 60° 100% - - 60° 66° 59.9° - - -
6/21 5:30am 110 1 G 2 60° 100% - - 60° 66° 59.9° - - -
6/21 5:20am 141 0 G 1 60° 100% - - 60° 66° 60° - - -
6/21 5:10am 163 0 G 1 61° 100% - - 61° 66° 60.4° - - -
6/21 5:00am 294 0 G 1 61° 100% - - 61° 66° 60.6° - - -
6/21 4:50am 0 0 G 0 61° 100% - - 61° 66° 60.9° - - -
6/21 4:40am 194 0 G 2 61° 100% - - 61° 66° 61° - - -
6/21 4:30am 213 0 G 1 61° 100% - - 61° 66° 61° - - -
6/21 4:20am 38 1 G 2 62° 100% - - 62° 66° 61.3° - - -
6/21 4:10am 67 1 G 1 62° 100% - - 62° 66° 61.3° - - -
6/21 4:00am 43 0 G 1 62° 100% - - 62° 66° 61.7° - - -
6/21 3:50am 0 0 G 0 62° 100% - - 62° 66° 61.7° - - -
6/21 3:40am 96 0 G 1 62° 100% - - 62° 66° 61.7° - - -
6/21 3:30am 28 0 G 1 62° 100% - - 62° 66° 61.7° - - -
6/21 3:20am 51 2 G 3 62° 100% - - 62° 66° 61.7° - - -
6/21 3:10am 124 1 G 1 62° 100% - - 62° 66° 61.9° - - -
6/21 3:00am 133 0 G 1 63° 100% - - 63° 66° 62.2° - - -
6/21 2:50am 108 0 G 1 63° 100% - - 63° 66° 62.3° - - -
6/21 2:40am 140 1 G 1 63° 100% - - 63° 66° 62.3° - - -
6/21 2:30am 129 0 G 1 63° 100% - - 63° 66° 62.3° - - -
6/21 2:20am 96 2 G 2 63° 100% - - 63° 66° 62.3° - - -
6/21 2:10am 179 2 G 3 63° 100% - - 63° 66° 62.7° - - -
6/21 2:00am 200 0 G 1 63° 100% - - 64° 66° 63.1° - - -
6/21 1:50am 153 1 G 3 64° 100% - - 64° 66° 63.3° - - -
6/21 1:40am 228 2 G 4 64° 100% - - 64° 66° 63.9° - - -
6/21 1:30am 199 2 G 3 64° 100% - - 64° 66° 64.1° - - -
6/21 1:20am 162 1 G 1 65° 97% - - 64° 66° 64.2° - - -
6/21 1:10am 60 1 G 2 65° 99% - - 65° 66° 65° - - -
6/21 1:00am 23 2 G 3 65° 99% - - 65° 66° 65° - - -
6/21 12:50am 14 2 G 3 65° 100% - - 65° 66° 65° - - -
6/21 12:40am 35 3 G 4 65° 100% - - 66° 66° 65.1° - - -
6/21 12:30am 50 2 G 4 66° 100% - - 66° 66° 65.1° - - -
6/21 12:20am 83 1 G 2 66° 100% - - 66° 66° 65.1° - - -
6/21 12:10am 121 2 G 3 65° 100% - - 65° 65.7° 65.1° - - -
6/21 12:00am 175 2 G 4 65° 100% - - 65° 97.7° 64.7° - - -
6/20 11:50pm 226 4 G 6 66° 100% - - 66° 97.7° 64.7° - - -
6/20 11:40pm 195 3 G 5 66° 100% - - 66° 97.7° 64.7° - - -
6/20 11:30pm 204 4 G 6 66° 99% - - 66° 97.7° 64.7° - - -
6/20 11:20pm 222 5 G 7 67° 89% - - 63° 97.7° 64.7° - - -
6/20 11:10pm 237 6 G 8 67° 84% - - 62° 97.7° 64.7° - - -
6/20 11:00pm 238 5 G 6 68° 82% - - 62° 97.7° 64.7° - - -
6/20 10:50pm 211 2 G 6 68° 79% - - 62° 97.7° 64.7° - - -
6/20 10:40pm 150 1 G 2 68° 78% - - 61° 97.7° 64.7° - - -
6/20 10:30pm 175 2 G 4 68° 78% - - 61° 97.7° 64.7° - - -
6/20 10:20pm 185 4 G 6 69° 78% - - 61° 97.7° 64.7° - - -
6/20 10:10pm 215 6 G 10 69° 76% - - 61° 97.7° 64.7° - - -
6/20 10:00pm 216 8 G 11 70° 73% - - 61° 97.7° 64.7° - - -
6/20 9:50pm 218 7 G 10 70° 70% - - 60° 97.7° 64.7° - - -
6/20 9:40pm 215 6 G 10 72° 66% - - 60° 97.7° 64.7° - - -
6/20 9:30pm 206 5 G 7 73° 62% - - 59° 97.7° 64.7° - - -
6/20 9:20pm 198 4 G 7 74° 59% - - 59° 97.7° 64.7° - - -
6/20 9:10pm 212 5 G 8 75° 56% - - 58° 97.7° 64.7° - - -
6/20 9:00pm 216 5 G 9 77° 52% - - 58° 97.7° 64.7° - - -
6/20 8:50pm 212 5 G 7 78° 50% - - 58° 97.7° 64.7° - - -
6/20 8:40pm 199 3 G 5 79° 48% - - 57° 97.7° 64.7° - - -
6/20 8:30pm 187 3 G 6 80° 45% - - 57° 97.7° 64.7° - - -
6/20 8:20pm 168 3 G 5 81° 44% - - 57° 97.7° 64.7° - - -
6/20 8:10pm 199 4 G 7 81° 43% - - 56° 97.7° 64.7° - - -
6/20 8:00pm 207 5 G 8 82° 41% - - 56° 97.7° 64.7° - - -
6/20 7:50pm 202 5 G 8 83° 39% - - 56° 97.7° 64.7° - - -
6/20 7:40pm 199 4 G 8 84° 37% - - 55° 97.7° 64.7° - - -
6/20 7:30pm 218 4 G 7 85° 34% - - 54° 97.7° 64.7° - - -
6/20 7:20pm 227 4 G 7 86° 32% - - 53° 97.7° 64.7° - - -
6/20 7:10pm 213 5 G 7 87° 32% - - 53° 97.7° 64.7° - - -
6/20 7:00pm 232 3 G 8 88° 31% - - 53° 97.7° 64.7° - - -
6/20 6:50pm 256 4 G 9 89° 30% - - 53° 97.7° 64.7° - - -
6/20 6:40pm 232 5 G 10 88° 30% - - 53° 97.7° 64.7° - - -
6/20 6:30pm 217 4 G 8 89° 30% - - 54° 97.7° 64.7° - - -
6/20 6:20pm 206 4 G 8 89° 30% - - 53° 97.7° 64.7° - - -
6/20 6:10pm 213 5 G 10 89° 30% - - 54° 97.7° 64.7° - - -
6/20 6:00pm 202 5 G 10 90° 30% - - 54° 97.7° 64.7° - - -